Station CBCM2 - Curtis Bay Ch. Entrance (8574837) Image indicating link to RSS feed of recent meteorological observations for station CBCM2


Conditions at CBCM2 as of
(10:30 am EDT)
1430 GMT on 05/29/2024:
     

Click on the graph icon in the table below to see a time series plot of the last five days of that observation.

5-day plot - Wind Direction Wind Direction (WDIR): N ( 360 deg true )
5-day plot - Wind Speed Wind Speed (WSPD): 1.9 kts
5-day plot - Wind Gust Wind Gust (GST): 4.1 kts
5-day plot - Atmospheric Pressure Atmospheric Pressure (PRES):29.95 in
5-day plot - Air Temperature Air Temperature (ATMP): 70.3 °F
5-day plot - Water Temperature Water Temperature (WTMP): 75.0 °F
5-day plot - Dew Point Dew Point (DEWP): 54.7 °F
5-day plot - Wind Speed at 10 Meters Wind Speed at 10 meters (WSPD10M): 3.9 kts
5-day plot - Wind Speed at 20 Meters Wind Speed at 20 meters (WSPD20M): 3.9 kts
5-day plot -  Wind Speed, Wind Gust and Atmospheric Pressure Combined plot of Wind Speed, Gust, and Air Pressure
Previous observations
TIME
(EDT)
5-day plot - Wind Direction
WDIR
 
5-day plot - Wind Speed
WSPD
kts
5-day plot - Wind Gust
GST
kts
5-day plot - Wave Height
WVHT
ft
5-day plot - Dominant Wave Period
DPD
sec
5-day plot - Average Wave Period
APD
sec
5-day plot - Mean Wave Direction
MWD
 
5-day plot - Atmospheric Pressure
PRES
in
5-day plot - Pressure Tendency
PTDY
in
5-day plot - Air Temperature
ATMP
°F
5-day plot - Water Temperature
WTMP
°F
5-day plot - Dew Point
DEWP
°F
5-day plot - Salinity
SAL
psu
5-day plot - Visibility
VIS
nmi
5-day plot - Tide (above MLLW)
TIDE
ft
2024-05-29 10:24 am N 2.9 5.1----29.95- 70.0 74.8 54.1---
2024-05-29 10:18 am N 4.1 5.1----29.94- 69.8 74.8 54.1---
2024-05-29 10:12 am N 2.9 5.1----29.94- 69.4 74.7 54.5---
2024-05-29 10:06 am N 5.1 6.0----29.94- 69.3 74.7 54.7---
2024-05-29 10:00 am N 4.1 5.1----29.94+0.00 69.3 74.5 55.0---
2024-05-29 09:54 am N 6.0 6.0----29.94- 69.1 74.5 54.1---
2024-05-29 09:48 am N 5.1 8.0----29.94- 69.1 74.5 55.2---
2024-05-29 09:42 am NW 4.1 6.0----29.94- 68.9 74.5 54.3---
2024-05-29 09:36 am NW 2.9 5.1----29.94- 68.9 74.3 54.5---
2024-05-29 09:30 amWNW 4.1 5.1----29.94- 68.5 74.3 54.9---
2024-05-29 09:24 amWNW 2.9 6.0----29.94- 68.5 74.3 55.6---
2024-05-29 09:18 amWNW 5.1 7.0----29.94- 68.4 74.1 55.6---
2024-05-29 09:12 amWNW 6.0 8.0----29.93- 68.0 74.1 56.3---
2024-05-29 09:06 am NW 4.1 6.0----29.93- 67.8 74.1 55.9---
2024-05-29 09:00 amNNW 5.1 7.0----29.93+0.00 67.6 74.1 56.3---
2024-05-29 08:54 amNNW 7.0 8.0----29.93- 67.5 73.9 55.8---
2024-05-29 08:48 am N 5.1 7.0----29.93- 67.3 73.9 55.9---
2024-05-29 08:42 amWNW 6.0 8.0----29.93- 67.1 73.9 56.5---
2024-05-29 08:36 amWNW 5.1 8.0----29.93- 66.9 73.9 56.3---
2024-05-29 08:30 amWNW 6.0 8.0----29.93- 66.7 73.9 56.5---
2024-05-29 08:24 am NW 6.0 8.0----29.93- 66.7 73.9 56.5---
2024-05-29 08:18 am NW 5.1 8.0----29.93- 66.4 73.9 56.3---
2024-05-29 08:12 amNNW 5.1 7.0----29.93- 66.4 73.9 56.1---
2024-05-29 08:06 am NW 6.0 7.0----29.93- 66.2 73.9 56.1---
2024-05-29 08:00 amWNW 5.1 6.0----29.94+0.04 66.0 73.9 56.3---
2024-05-29 07:54 amWNW 4.1 5.1----29.94- 65.7 73.8 56.5---
2024-05-29 07:48 amWNW 4.1 7.0----29.94-- 73.8----
2024-05-29 07:42 amWNW 5.1 7.0----29.94-- 73.8----
2024-05-29 07:36 amWNW 7.0 8.0----29.93-- 73.8----
2024-05-29 07:30 amWNW 7.0 8.9----29.94- 64.4 73.8 55.8---
2024-05-29 07:24 amWNW 5.1 7.0----29.94- 64.2 73.8 55.9---
2024-05-29 07:18 am W 5.1 7.0----29.94- 63.9 73.8 55.4---
2024-05-29 07:12 am SW 5.1 8.0----29.94- 63.7 73.8 55.8---
2024-05-29 07:06 am SW 7.0 8.9----29.94- 63.7 73.8 56.1---
2024-05-29 07:00 am SW 5.1 8.0----29.93+0.06 63.9 73.8 55.9---
2024-05-29 06:54 amWSW 4.1 6.0----29.93- 64.2 73.8 56.1---
2024-05-29 06:48 am W 5.1 7.0----29.93- 64.2 73.8 56.5---
2024-05-29 06:42 am W 5.1 7.0----29.93- 64.2 73.8 56.1---
2024-05-29 06:36 am W 5.1 7.0----29.94- 64.4 73.8 56.5---
2024-05-29 06:30 am W 6.0 7.0----29.94- 64.0 73.8 55.9---
2024-05-29 06:24 am W 5.1 7.0----29.93- 64.0 73.8 55.6---
2024-05-29 06:18 am W 5.1 7.0----29.93- 64.0 73.8 55.9---
2024-05-29 06:12 am W 5.1 7.0----29.93- 63.9 73.8 55.4---
2024-05-29 06:06 am SW 6.0 8.0----29.93- 63.5 73.8 55.9---
2024-05-29 06:00 amSSW 6.0 8.0----29.93+0.04 63.7 73.8----
2024-05-29 05:54 am SW 5.1 6.0----29.93- 64.0 73.8----
2024-05-29 05:48 am W 4.1 7.0----29.93- 64.8 73.8 56.3---
2024-05-29 05:42 am NW 5.1 8.0----29.92- 64.8 73.8 55.9---
2024-05-29 05:36 amWNW 5.1 7.0----29.92- 64.9 73.8 56.1---
2024-05-29 05:30 amWNW 6.0 7.0----29.91- 64.9 73.9 55.9---
2024-05-29 05:24 amWNW 2.9 5.1----29.91- 64.9 73.9 55.9---
2024-05-29 05:18 am W 4.1 6.0----29.91-------
2024-05-29 05:12 am W 5.1 8.0----29.91- 64.9 73.9 56.3---
2024-05-29 05:06 am W 7.0 8.9----29.90- 65.1 73.9 55.8---
2024-05-29 05:00 am W 7.0 8.9----29.90+0.01 65.1 73.9 55.8---
2024-05-29 04:54 amWNW 7.0 8.9----29.89- 65.1 73.9 55.8---
2024-05-29 04:48 amWNW 7.0 8.9----29.89- 65.3 73.9 55.9---
2024-05-29 04:42 amWNW 7.0 8.9----29.89- 65.5 73.9 55.9---
2024-05-29 04:36 amWNW 6.0 8.9----29.88- 65.7 73.9 55.9---
2024-05-29 04:30 amWNW 6.0 8.0----29.88- 65.7 73.9 55.6---
2024-05-29 04:24 amWNW 7.0 9.9----29.88- 65.5 73.9 55.6---
2024-05-29 04:18 amWNW 7.0 9.9----29.88- 65.8 73.9 56.3---
2024-05-29 04:12 amWNW 8.0 9.9----29.88- 65.8 73.9 56.7---
2024-05-29 04:06 amWNW 8.9 11.1----29.88- 65.8 73.9 56.5---
2024-05-29 04:00 amWNW 7.0 8.9----29.88- 66.2 74.1 56.7---
2024-05-29 03:54 amWNW 6.0 8.0----29.88- 66.2 74.1 56.5---
2024-05-29 03:48 amWNW 6.0 8.9----29.88- 66.4 74.1 56.5---
2024-05-29 03:42 amWNW 7.0 9.9----29.88- 66.4 74.1 56.5---
2024-05-29 03:36 amWNW 7.0 11.1----29.88- 66.6 74.1 56.7---
2024-05-29 03:30 amWNW 8.9 12.0----29.88- 66.6 74.1 55.9---
2024-05-29 03:24 am NW 8.9 13.0----29.88- 66.9 74.1 56.8---
2024-05-29 03:18 am NW 8.9 12.0----29.88-- 74.1----
2024-05-29 03:12 am NW 8.0 9.9----29.88- 66.9 74.1 56.3---
2024-05-29 03:06 am NW 7.0 8.9----29.88- 66.7 74.1 56.5---
2024-05-29 03:00 am NW 6.0 8.9----29.89+0.00 66.9 74.1 56.5---
2024-05-29 02:54 am NW 8.0 8.9----29.89- 67.1 74.3 57.0---
2024-05-29 02:48 am NW 8.0 9.9----29.89- 66.9 74.3 56.3---
2024-05-29 02:42 am NW 8.0 9.9----29.89- 67.1 74.3 57.0---
2024-05-29 02:36 am NW 8.9 12.0----29.89- 67.5 74.3 57.4---
2024-05-29 02:30 am NW 8.9 12.0----29.89- 67.5 74.3 57.2---
2024-05-29 02:24 am NW 8.9 13.0----29.89- 67.6 74.3 57.6---
2024-05-29 02:18 am NW 9.9 13.0----29.89-- 74.3----
2024-05-29 02:12 am NW 11.1 13.0----29.88- 67.5 74.3 56.5---
2024-05-29 02:06 am NW 9.9 12.0----29.88- 67.6 74.3 56.5---
2024-05-29 02:00 amWNW 8.0 11.1----29.88+0.00 67.6 74.3 57.0---
2024-05-29 01:54 amWNW 8.0 9.9----29.89- 67.5 74.3 56.1---
2024-05-29 01:48 amWNW 8.9 11.1----29.89- 67.8 74.3 56.8---
2024-05-29 01:42 amWNW 8.9 11.1----29.89- 68.0 74.3 56.8---
2024-05-29 01:36 amWNW 9.9 12.0----29.89- 68.4 74.3 56.8---
2024-05-29 01:30 amWNW 9.9 12.0----29.89- 68.5 74.3 57.2---
2024-05-29 01:24 amWNW 11.1 14.0----29.89- 68.7 74.5 57.2---
2024-05-29 01:18 amWNW 9.9 13.0----29.89-- 74.5----
2024-05-29 01:12 am NW 9.9 12.0----29.89- 68.9 74.5 57.0---
2024-05-29 01:06 am NW 8.9 12.0----29.89- 68.9 74.5 56.7---
2024-05-29 01:00 am--------- 68.9 74.5 56.1---
2024-05-29 12:54 am--------- 69.1 74.5 56.8---
2024-05-29 12:48 am NW 8.9 9.9----29.89- 69.1-----
2024-05-29 12:42 am NW 8.0 9.9----29.89- 69.3-----
2024-05-29 12:36 am NW 8.9 12.0----29.89- 69.3-----
2024-05-29 12:30 amWNW 8.9 11.1----29.89- 69.4 74.5 57.4---
2024-05-29 12:24 amWNW 8.0 9.9----29.89- 69.6 74.7 56.5---
2024-05-29 12:18 amWNW 9.9 12.0----29.89- 69.8 74.7 57.0---
2024-05-29 12:12 amWNW 9.9 12.0----29.88- 70.0 74.7 56.7---
2024-05-29 12:06 amWNW 8.9 12.0----29.88- 70.2 74.7 57.0---
2024-05-29 12:00 amWNW 8.9 11.1----29.88+0.05 70.5 74.7 56.8---
2024-05-28 11:54 pm W 8.9 11.1----29.88- 70.7 74.7 57.4---
2024-05-28 11:48 pm W 8.9 13.0----29.88- 70.9 74.7 57.4---
2024-05-28 11:42 pm W 8.0 11.1----29.88- 70.9 74.7 57.4---
2024-05-28 11:36 pm W 9.9 12.0----29.88- 70.9 74.7 57.7---
2024-05-28 11:30 pm W 9.9 11.1----29.88- 71.1 74.7 57.9---
2024-05-28 11:24 pm W 7.0 8.9----29.88- 71.4 74.8 58.1---
2024-05-28 11:18 pm W 8.0 9.9----29.88- 71.6 74.8 57.6---
2024-05-28 11:12 pm W 7.0 8.0----29.87- 72.0 74.8 56.5---
2024-05-28 11:06 pm W 6.0 7.0----29.88- 72.0 74.8 57.2---
2024-05-28 11:00 pmWNW 7.0 8.0----29.88+0.06 72.0 74.8 57.4---
2024-05-28 10:54 pmWNW 7.0 8.0----29.88- 72.1 74.8 58.3---
2024-05-28 10:48 pmWNW 5.1 7.0----29.88-- 74.8----
2024-05-28 10:42 pm NW 6.0 8.0----29.88- 72.1 74.8 57.0---
2024-05-28 10:36 pm W 7.0 8.0----29.88- 72.1 74.8 57.2---
2024-05-28 10:30 pmWNW 7.0 12.0----29.87- 72.3 74.8 57.0---
2024-05-28 10:24 pm NW 8.0 8.9----29.88- 72.7 75.0 58.3---
2024-05-28 10:18 pmNNW 8.0 11.1----29.87-- 75.0----
2024-05-28 10:12 pm N 8.9 12.0----29.87- 72.7 75.0 58.6---
2024-05-28 10:06 pmNNW 8.9 12.0----29.87- 72.7 75.0 57.6---
2024-05-28 10:00 pm N 9.9 12.0----29.86+0.06 72.9 75.0 58.1---
2024-05-28 09:54 pmNNW 12.0 13.0----29.86- 73.4 75.0 58.6---
2024-05-28 09:48 pm NW 12.0 17.1----29.86- 73.9 75.0 59.7---
2024-05-28 09:42 pmWNW 13.0 17.1----29.86- 74.1 75.0 59.7---
2024-05-28 09:36 pm W 14.0 17.1----29.85- 74.7 75.0 61.0---
2024-05-28 09:30 pm W 15.0 18.1----29.85- 74.7 75.2 60.3---
2024-05-28 09:24 pm W 12.0 15.9----29.85- 74.8 75.2 61.5---
2024-05-28 09:18 pmWSW 9.9 12.0----29.85- 74.3 75.2 60.6---
2024-05-28 09:12 pmWSW 11.1 13.0----29.84- 74.3 75.2 59.9---
2024-05-28 09:06 pmWSW 9.9 14.0----29.84- 74.1 75.2 59.5---
2024-05-28 09:00 pmWSW 9.9 14.0----29.84+0.04 74.1 75.2 59.2---
2024-05-28 08:54 pmWSW 11.1 13.0----29.83- 74.3 75.2 59.0---
2024-05-28 08:48 pmWSW 9.9 13.0----29.83- 74.3 75.2 59.5---
2024-05-28 08:42 pmWSW 11.1 13.0----29.83- 74.5 75.2 58.6---
2024-05-28 08:36 pmWSW 8.9 13.0----29.83- 74.7 75.2 59.5---
2024-05-28 08:30 pm SW 8.0 11.1----29.83- 74.7 75.2 58.8---
2024-05-28 08:24 pmWSW 8.9 11.1----29.82- 75.0 75.2 59.0---
2024-05-28 08:18 pmWSW 9.9 13.0----29.82- 75.2 75.2 58.6---
2024-05-28 08:12 pmWSW 8.9 11.1----29.82- 75.4 75.4 58.5---
2024-05-28 08:06 pmWSW 8.9 12.0----29.82- 75.7 75.4 59.0---
2024-05-28 08:00 pmWSW 9.9 12.0----29.82+0.03 76.1 75.4 59.0---
2024-05-28 07:54 pmWSW 11.1 14.0----29.82- 76.1 75.4 57.7---
2024-05-28 07:48 pmWSW 11.1 13.0----29.81- 76.5 75.4 57.4---
2024-05-28 07:42 pmWSW 11.1 13.0----29.81- 76.5 75.4 57.7---
2024-05-28 07:36 pmWSW 11.1 14.0----29.81- 76.5 75.4 58.6---
2024-05-28 07:30 pmWSW 8.9 13.0----29.81- 76.5 75.4 57.9---
2024-05-28 07:24 pmWSW 9.9 13.0----29.81- 76.6 75.4 58.5---
2024-05-28 07:00 pmWSW 11.1 17.1----29.80+0.00 77.4 75.6 57.6---
2024-05-28 06:54 pmWSW 14.0 18.1----29.80- 77.5 75.6 58.6---
2024-05-28 06:48 pmWSW 11.1 15.9----29.80- 77.7 75.6 59.5---
2024-05-28 06:42 pmWSW 14.0 17.1----29.79- 78.1 75.6 58.3---
2024-05-28 06:36 pmWSW 12.0 17.1----29.79- 78.3 75.6 59.2---
2024-05-28 06:30 pm-------29.80-- 75.6----
2024-05-28 06:24 pm-------29.80-- 75.6----
2024-05-28 06:18 pmWSW 12.0 15.0----29.80- 78.6 75.6 57.4---
2024-05-28 06:12 pmWSW 12.0 18.1----29.80- 78.8 75.6 57.4---
2024-05-28 06:06 pmWSW 12.0 15.9----29.80- 79.2 75.6 57.9---
2024-05-28 06:00 pm W 15.0 19.0----29.80-0.01- 75.7----
2024-05-28 05:54 pmWSW 13.0 17.1----29.79-- 75.7----
2024-05-28 05:48 pmWSW 13.0 18.1----29.80-- 75.7----
2024-05-28 05:42 pmWSW 15.0 18.1----29.79-- 75.7----
2024-05-28 05:36 pmWSW 15.0 20.0----29.79-- 75.7----
2024-05-28 05:30 pmWSW 13.0 17.1------------
2024-05-28 05:24 pm W 13.0 15.9------------
2024-05-28 05:18 pm W 13.0 17.1----29.80-- 75.7----
2024-05-28 05:12 pm W 9.9 15.9----29.79-- 75.7----
2024-05-28 05:06 pmWNW 13.0 17.1----29.79-- 75.7----
2024-05-28 05:00 pmWNW 13.0 18.1----29.79-0.02- 75.7----
2024-05-28 04:54 pm W 12.0 15.9----29.79-- 75.7----
2024-05-28 04:48 pm W 15.0 18.1----29.79-- 75.7----
2024-05-28 04:42 pmWNW 13.0 19.0----29.79-- 75.7----
2024-05-28 04:36 pm W 14.0 18.1----29.79-- 75.7----
2024-05-28 04:30 pm W 15.0 21.0------------
2024-05-28 04:24 pm W 13.0 17.1------------
2024-05-28 04:18 pm W 14.0 19.0----29.80-- 75.7----
2024-05-28 04:12 pmWNW 12.0 18.1----29.80-- 75.7----
2024-05-28 04:06 pm W 14.0 18.1----29.80-- 75.7----
2024-05-28 04:00 pm W 14.0 17.1----29.80-0.02 79.2 75.7 56.3---
2024-05-28 03:54 pmWNW 15.0 18.1----29.80- 79.2 75.7 56.3---
2024-05-28 03:48 pmWNW 12.0 17.1----29.80- 79.2 75.7 56.5---
2024-05-28 03:42 pmWNW 14.0 19.0----29.80- 79.2 75.7 56.3---
2024-05-28 03:36 pmWNW 14.0 18.1----29.80- 79.0 75.7 56.7---
2024-05-28 03:30 pm W 13.0 21.0----29.80- 79.2 75.7 55.9---
2024-05-28 03:24 pmWNW 14.0 20.0----29.81- 79.3 75.7 57.7---
2024-05-28 03:18 pmWNW 12.0 19.0----29.80-- 75.7----
2024-05-28 03:12 pmWNW 15.0 19.0----29.80- 79.2 75.7 56.5---
2024-05-28 03:06 pm W 13.0 17.1----29.80- 79.3 75.7 56.7---
2024-05-28 03:00 pm W 12.0 15.9----29.80-0.01 79.0 75.6 56.7---
2024-05-28 02:54 pmWNW 11.1 15.0----29.80- 78.6 75.6 58.5---
2024-05-28 02:48 pm W 11.1 14.0----29.80- 78.6 75.6 56.5---
2024-05-28 02:42 pm W 11.1 15.9----29.80- 78.6 75.6 56.8---
2024-05-28 02:36 pm W 13.0 15.9----29.80- 78.4 75.6 56.3---
2024-05-28 02:30 pm W 15.0 18.1----29.80- 78.1 75.6 57.0---
2024-05-28 02:24 pm W 14.0 17.1----29.80- 77.9 75.6 58.8---
2024-05-28 02:18 pm W 15.9 22.0----29.80- 78.1 75.4 58.3---
2024-05-28 02:12 pm W 14.0 17.1----29.81- 78.1 75.4 57.0---
2024-05-28 02:06 pm W 9.9 15.0----29.81- 77.9 75.4 58.3---
2024-05-28 02:00 pm W 12.0 17.1----29.81+0.00 77.9 75.4 57.6---
2024-05-28 01:54 pm W 9.9 15.0----29.82- 77.5 75.2 58.3---
2024-05-28 01:48 pm W 14.0 18.1----29.81- 77.4 75.2 58.5---
2024-05-28 01:42 pm W 13.0 20.0----29.82- 77.7 75.2 57.7---
2024-05-28 01:36 pm W 14.0 19.0----29.81- 77.7 75.2 58.5---
2024-05-28 01:30 pm W 8.9 14.0----29.82- 77.9 75.4 56.7---
2024-05-28 01:24 pm W 7.0 9.9----29.82- 77.9 75.4 56.1---
2024-05-28 01:18 pm W 8.9 13.0----29.82- 77.9 75.4 56.8---
2024-05-28 01:12 pm W 12.0 15.9----29.82- 77.5 75.4 57.4---
2024-05-28 01:06 pm W 11.1 17.1----29.82- 77.5 75.4 56.3---
2024-05-28 01:00 pmWNW 11.1 15.0----29.83+0.02 77.5 75.2 56.7---
2024-05-28 12:54 pm W 8.0 12.0----29.82- 77.2 75.2 58.5---
2024-05-28 12:48 pm W 13.0 15.9----29.82- 77.2 75.2 56.5---
2024-05-28 12:42 pm W 9.9 14.0----29.82- 77.0 75.0 59.0---
2024-05-28 12:36 pm W 9.9 15.9----29.81- 76.8 75.0 59.2---
2024-05-28 12:30 pm W 9.9 18.1----29.82- 76.6 74.8 58.1---
2024-05-28 12:24 pm W 11.1 17.1----29.82- 76.5 74.8 58.8---
2024-05-28 12:18 pm W 12.0 15.9----29.82- 76.1 74.8 60.1---
2024-05-28 12:12 pmWNW 11.1 15.9----29.82- 76.1 75.0 59.5---
2024-05-28 12:06 pmWNW 12.0 17.1----29.82- 76.1 75.0 59.4---
2024-05-28 12:00 pm W 12.0 19.0----29.82+0.01 75.9 75.0 59.7---
2024-05-28 11:54 amWNW 14.0 15.9----29.82- 75.7 75.0 59.0---
2024-05-28 11:48 amWNW 14.0 17.1----29.82-- 75.0----
2024-05-28 11:42 amWNW 13.0 20.0----29.81- 75.6 74.8 59.0---
2024-05-28 11:36 am NW 11.1 15.9----29.81- 75.4 74.7 59.0---
2024-05-28 11:30 am NW 8.0 11.1----29.81- 75.0 74.8 59.5---
2024-05-28 11:24 am NW 8.0 8.9----29.82- 74.8 74.8 59.0---
2024-05-28 11:18 am NW 8.0 11.1----29.82- 74.5 74.8 59.7---
2024-05-28 11:12 amWNW 8.0 13.0----29.82- 74.5 74.5 59.0---
2024-05-28 11:06 am W 9.9 13.0----29.81- 74.1 74.5 59.4---
2024-05-28 11:00 amWNW 8.9 11.1----29.81+0.01 73.9 74.5 59.0---
2024-05-28 10:54 am W 8.9 12.0----29.81- 73.8 74.3 59.9---